Regional Weather Roundup
Issued by NWS

Home | Current Version | Previous Version | Text Only | Print | Product List | Glossary Off
Versions: 1 2 3 4 5 6 7 8 9 10 11 12 13 14 15 16 17 18 19 20 21 22 23 24 25 26 27 28 29 30 31 32 33 34 35 36 37 38 39 40 41 42 43 44 45 46 47 48 49 50

000
ASUS43 KOAX 052102
RWRNE

WEATHER ROUNDUP FOR NEBRASKA
NATIONAL WEATHER SERVICE OMAHA NE
400 PM CDT SUN JUL 05 2015

NOTES: SATELLITE DATA IS BEING USED TO AUGMENT CLOUD COVER ABOVE
       12000 FEET.
       "FAIR" INDICATES FEW OR NO CLOUDS BELOW 12,000 FEET WITH NO
       SIGNIFICANT WEATHER AND/OR OBSTRUCTIONS TO VISIBILITY.

  * THESE STATIONS DO NOT REPORT WEATHER SUCH AS RAIN...SNOW OR FOG.

NEZ001>004-019>022-054>056-052200-
NEBRASKA PANHANDLE

CITY           SKY/WX    TMP DP  RH WIND       PRES   REMARKS
SCOTTSBLUFF    PTSUNNY   94  55  26 W8        29.82F HX  92
ALLIANCE       PTSUNNY   93  57  29 W5        29.82F HX  91
CHADRON        PTSUNNY   88  66  48 N18G24    29.82F HX  90
KIMBALL          N/A    N/A N/A N/A MISG        N/A
SIDNEY         MOSUNNY   94  53  25 N7        29.86S HX  91
$$

NEZ057>060-069>072-079>082-052200-
SOUTHWEST NEBRASKA

CITY           SKY/WX    TMP DP  RH WIND       PRES   REMARKS
NORTH PLATTE   SUNNY     93  67  42 S10       29.77F HX  96
IMPERIAL       SUNNY    101  56  22 S10G17    29.77F HX 100
LEXINGTON      SUNNY     98  67  36 S12       29.77F HX 102
MCCOOK         SUNNY    101  56  22 S12G22    29.73F HX 100
$$

NEZ005>010-023>029-035>040-094-052200-
NORTH CENTRAL NEBRASKA

CITY           SKY/WX    TMP DP  RH WIND       PRES   REMARKS
VALENTINE      MOSUNNY   95  66  38 S10       29.76F HX  98
AINSWORTH      PTSUNNY   92  69  46 S12       29.77F HX  98
BROKEN BOW     MOSUNNY   91  70  49 S15G26    29.79F HX  96
O`NEILL        MOSUNNY   89  71  55 S15G22    29.78F HX  96
ORD            MOSUNNY   90  70  51 S17G25    29.77F HX  95
$$

NEZ041-046>049-061>064-073>077-083>087-052200-
SOUTH CENTRAL NEBRASKA

CITY           SKY/WX    TMP DP  RH WIND       PRES   REMARKS
GRAND ISLAND   MOSUNNY   93  73  52 S16G29    29.78F HX 102
AURORA         MOSUNNY   92  72  51 S20       29.78F HX 100
HASTINGS       SUNNY     96  68  39 S15G23    29.78F HX 101
KEARNEY *      SUNNY     97  70  41 SE16G26   29.77F HX 103
$$

NEZ011>018-030>034-042>045-052200-
NORTHEAST NEBRASKA

CITY           SKY/WX    TMP DP  RH WIND       PRES   REMARKS
NORFOLK        MOSUNNY   87  74  64 S18       29.80S HX  95
BLAIR          MOSUNNY   87  71  58 S18       29.84S HX  93
COLUMBUS *     SUNNY     88  73  62 SE15G23   29.81F HX  96
FREMONT        SUNNY     89  73  58 SE17G25   29.82F HX  97
TEKAMAH        SUNNY     90  73  57 S18G28    29.82F HX  98
$$

NEZ050>053-065>068-078-088>093-052200-
SOUTHEAST NEBRASKA

CITY           SKY/WX    TMP DP  RH WIND       PRES   REMARKS
LINCOLN        SUNNY     92  74  55 S21       29.81F HX 101
OMAHA EPPLEY   PTSUNNY   90  73  57 S21G30    29.83F HX  98
FALLS CITY     SUNNY     91  73  55 S17       29.85F HX  99
PLATTSMOUTH    MOSUNNY   89  73  58 S18G24    29.85S HX  96
$$

NEZ044-045-051>053-067-052200-
OMAHA AREA

CITY           SKY/WX    TMP DP  RH WIND       PRES   REMARKS
OMAHA EPPLEY   PTSUNNY   90  73  57 S21G30    29.83F HX  98
BLAIR          MOSUNNY   87  71  58 S18       29.84S HX  93
FREMONT        SUNNY     89  73  58 SE17G25   29.82F HX  97
MILLARD        SUNNY     89  76  65 S16G22    29.83S HX  99
OFFUTT AFB     MOSUNNY   90  75  62 SE20      29.83F HX 100
PLATTSMOUTH    MOSUNNY   89  73  58 S18G24    29.85S HX  96
$$



USA.gov is the U.S. government's official web portal to all federal, state and local government web resources and services.